Weather in Mirny

Russia / Sakha (Yakutia) Republic     62°32′27″N   113°58′43″E
temp.,
°C
wind,
m/s
gust,
m/s
humid.,
%
clouds,
%
prec.,
mm/h
press.,
hPa
HPBL,
m
25 may, wed
wed2500:00+12w5127262 2.1 1008784
03:00+8nnw6128882 2.1 1012902
06:00+6nw3986100 0.0 1014912
09:00+9nw5963100 0.1 10141440
12:00+8nnw3470100 0.0 1014869
15:00+10nw3557100 0.1 10131346
18:00+10nnw454987 0.1 10121642
21:00+9wnw11565 0.1 101233
26 may, thu
thu2600:00+5ene31066100 0.0 1013334
03:00+3ene2873100 0.0 1014231
06:00+2ne4971100 0.0 1014421
09:00+5ne575898 0.0 10131012
12:00+5ne6860100 0.1 10131420
15:00+5ne5861100 0.1 10131432
18:00+5ne5855100 0.0 10141622
21:00+5nne385784 0.0 10151411
27 may, fri
fri2700:00+1nnw247272 0.0 101673
03:00+1nne4125861 0.0 1017429
06:000nne410585 0.0 1018550
09:00+4nne46445 0.0 10191110
12:00+7nne46335 0.0 10181739
15:00+9nne56306 0.0 10162102
18:00+9nne463097 0.0 10152356
21:00+7nne364191 0.0 1016289
28 may, sat
sat2800:00+3nne310577 0.0 1017300
03:00+1n39685 0.0 1017237
06:00+1n386516 0.0 1018312
09:00+5nne34505 0.0 1017928
12:00+8nne333997 0.0 10161962
15:00+11n3432100 0.0 10152139
18:00+11nne3432100 0.0 10142170
21:00+9ne364696 0.0 1015242
29 may, sun
sun2900:00+4ne276385 0.0 1016167
03:00+3ne2269100 0.0 101632
06:00+4nne1466100 0.0 1016147
09:00+7ne2349100 0.0 10151031
12:00+10ne2339100 0.0 10131589
15:00+12ene233360 0.0 10122066
18:00+13ene333282 0.0 10112227
21:00+11e224699 0.0 101124